Printer-friendly version

IAU Minor Planet Center

Minor Planet Center

MPEC 2006-M51 : 2006 MY13

The following Minor Planet Electronic Circular may be linked-to from your own Web pages, but must not otherwise be redistributed electronically.


Read MPEC 2006-M50 Read MPEC 2006-M52


M.P.E.C. 2006-M51                                Issued 2006 June 29, 17:21 UT

     The Minor Planet Electronic Circulars contain information on unusual
         minor planets and routine data on comets.  They are published
   on behalf of Commission 20 of the International Astronomical Union by the
          Minor Planet Center, Smithsonian Astrophysical Observatory,
                          Cambridge, MA 02138, U.S.A.

                  Supported in part by the Brinson Foundation
                  Supported in part by the TABASGO Foundation
             Prepared using the Tamkin Foundation Computer Network

                              MPC@CFA.HARVARD.EDU
          URL http://cfa-www.harvard.edu/iau/mpc.html  ISSN 1523-6714

                                   2006 MY13

Observations:
     K06M13Y* C2006 06 27.75837 22 16 45.91 -49 20 17.4          18.9 V EM051E12
     K06M13Y  C2006 06 27.76713 22 16 34.35 -49 19 54.7          19.5 V EM051E12
     K06M13Y  C2006 06 27.77602 22 16 22.90 -49 19 35.0          19.1 V EM051E12
     K06M13Y  C2006 06 27.78472 22 16 11.71 -49 19 14.7          18.8 V EM051E12
     K06M13Y  C2006 06 28.55766 21 59 52.50 -48 44 57.9          19.2 R EM051E12
     K06M13Y  C2006 06 28.55851 21 59 51.49 -48 44 55.6          19.0 V EM051E12
     K06M13Y  C2006 06 28.55917 21 59 50.54 -48 44 53.4          19.5 V EM051E12
     K06M13Y  C2006 06 28.55980 21 59 49.76 -48 44 51.1          19.0 V EM051E12
     K06M13Y  C2006 06 28.56359 21 59 44.96 -48 44 40.7          19.0 R EM051E12
     K06M13Y  C2006 06 28.68818 21 57 05.46 -48 38 30.0          19.0 V EM051E12
     K06M13Y  C2006 06 28.69827 21 56 52.51 -48 37 59.9          19.0 V EM051E12
     K06M13Y  C2006 06 28.70856 21 56 39.21 -48 37 27.1          18.7 V EM051E12
     K06M13Y  C2006 06 29.51406 21 39 55.00 -47 50 12.6          19.4 V EM051E12
     K06M13Y  C2006 06 29.51448 21 39 54.36 -47 50 10.5          19.3 V EM051E12
     K06M13Y  C2006 06 29.51490 21 39 53.92 -47 50 09.0          18.8 V EM051E12
     K06M13Y  C2006 06 29.51531 21 39 53.46 -47 50 07.2          19.0 V EM051E12

Observer details:
E12 Siding Spring Survey.  Observer R. H. McNaught.  Measurers E. C. Beshore,
    E. J. Christensen, G. J. Garradd, A. R. Gibbs, A. D. Grauer, R. E. Hill,
    R. A. Kowalski, S. M. Larson, R. H. McNaught.  0.5-m Uppsala Schmidt + CCD.

Orbital elements:
2006 MY13                                                Earth MOID = 0.1966 AU
Epoch 2006 Mar. 6.0 TT = JDT 2453800.5                  MPC
M 329.78873              (2000.0)            P               Q
n   0.69059528     Peri.  228.82382     -0.71062157     -0.20137783
a   1.2676139      Node   288.43822     +0.63212755     -0.60344388
e   0.6100591      Incl.   45.28529     -0.30892029     -0.77155846
P   1.43           H   20.4           G   0.15           U   9
Residuals in seconds of arc
060627 E12  0.9+  1.8-    060628 E12  0.3-  0.1-    060629 E12  0.3+  0.6-
060627 E12  1.1-  0.9+    060628 E12  0.1-  0.4+    060629 E12  0.9-  0.0
060627 E12  0.4-  0.2+    060628 E12  0.2+  0.1-    060629 E12  0.0   0.1-
060627 E12  0.5+  0.4+    060628 E12  0.2+  0.9+    060629 E12  0.5+  0.2+
060628 E12  0.0   0.3-    060628 E12  0.2+  0.2-
060628 E12  0.8+  0.4-    060628 E12  0.8-  0.7+

Ephemeris:
2006 MY13                a,e,i = 1.27, 0.61, 45                  q = 0.4943
Date    TT    R. A. (2000) Decl.     Delta      r     Elong.  Phase     V
2006 06 24    23 33.97   -49 58.8    0.245    1.136   113.4    55.2    19.6
2006 07 04    20 17.73   -41 05.6    0.237    1.235   154.3    20.9    18.8
2006 07 14    18 37.37   -23 38.9    0.317    1.327   167.2     9.8    19.2
2006 07 24    17 58.98   -13 13.5    0.446    1.413   147.4    22.8    20.5
2006 08 03    17 43.90   -07 53.3    0.600    1.492   133.3    29.7    21.4

Kyle E. Smalley              (C) Copyright 2006 MPC           M.P.E.C. 2006-M51

Read MPEC 2006-M50 Read MPEC 2006-M52


Our Web policy. Index to the CBAT/MPC/ICQ pages.


Valid HTML 4.01!